{"data":{"norad_id":57203,"epoch":"2026-05-25T04:42:41.430240Z","epoch_age_seconds":58064,"freshness":"FRESH","line1":"1 57203U 23091AP  26145.19631285  .00013468  00000+0  44593-3 0  9994","line2":"2 57203  97.5098 212.1085 0009147 152.5854 207.5872 15.31396568161025","mean_motion":15.31396568,"eccentricity":0.0009147,"inclination_deg":97.5098,"raan_deg":212.1085,"arg_perigee_deg":152.5854,"mean_anomaly_deg":207.5872,"bstar":0.00044593,"rev_number":16102,"period_min":94.0318158007,"perigee_km":465.37916429206,"apogee_km":477.91015486009,"semimajor_km":6849.7816595761,"source":"CELESTRAK","updated_at":"2026-05-25T13:38:23.292906Z"}}